Location: Splawn
(30.9202°N, 96.9858°W)
Time: 14:30:18
(UTC+00:00)

Transit 2A Rocket - Pass Details

Date: 01 March 2020
Orbit: 588 x 915 km, 66.7° (Epoch: 07 April)

Event Time Altitude Azimuth Distance (km) Brightness Sun altitude
Rises 11:03:32 0° 352° (N) 3,215 8.2 -24.4°
Reaches altitude 10° 11:06:27 10° 9° (N) 2,349 7.7 -23.8°
Maximum altitude 11:10:29 21° 57° (ENE) 1,786 7.6 -23.0°
Drops below altitude 10° 11:14:43 10° 104° (ESE) 2,491 8.6 -22.1°
Sets 11:17:54 0° 120° (ESE) 3,470 9.3 -21.4°
